EW4711 Weather Reports


time (UTC)temp
C
wind
direction
speed
KPH
gust
KPH
rain 1hr
cm
rain 24hr
cm
rain mn
cm
humidity
%
barometer
mb
20260505100604 13 248 8.0 19.3 0.00 0.43 0.43 91 999.1
20260505100106 13 248 8.0 19.3 0.00 0.43 0.43 92 999.2
20260505095605 13 244 4.8 14.5 0.00 0.43 0.43 92 999.2
20260505095104 13 241 4.8 16.1 0.00 0.43 0.43 93 999.0
20260505094604 13 237 6.4 12.9 0.00 0.43 0.43 93 999.1
20260505094106 13 240 4.8 19.3 0.00 0.43 0.43 94 999.0
20260505092611 12 284 4.8 14.5 0.00 0.43 0.43 95 999.0
20260505091604 12 245 4.8 16.1 0.00 0.43 0.43 96 998.9
20260505091104 12 244 8.0 14.5 0.00 0.43 0.43 95 998.8
20260505090604 12 245 4.8 12.9 0.00 0.43 0.43 95 998.9
20260505085605 12 242 4.8 12.9 0.00 0.43 0.43 96 999.0
20260505085104 12 249 3.2 4.8 0.00 0.43 0.43 96 999.1
20260505084604 12 246 4.8 8.0 0.00 0.43 0.43 96 999.1
20260505084106 12 242 3.2 4.8 0.00 0.43 0.43 96 999.1
20260505083604 12 243 1.6 4.8 0.00 0.43 0.43 96 999.2
20260505083108 12 208 3.2 9.7 0.00 0.43 0.43 95 999.3
20260505082604 12 249 1.6 8.0 0.00 0.43 0.43 95 999.4
20260505082106 12 243 3.2 11.3 0.00 0.43 0.43 95 999.4
20260505081604 12 247 4.8 9.7 0.00 0.43 0.43 95 999.5
20260505081106 12 247 3.2 11.3 0.00 0.43 0.43 95 999.6
20260505080604 12 230 4.8 8.0 0.00 0.43 0.43 95 999.5
20260505080104 12 238 3.2 14.5 0.00 0.43 0.43 95 999.6
20260505075605 12 241 4.8 12.9 0.00 0.43 0.43 95 999.6
20260505075104 12 222 4.8 8.0 0.00 0.43 0.43 94 999.6
20260505074604 12 241 3.2 9.7 0.00 0.43 0.43 94 999.6
20260505074103 12 249 3.2 4.8 0.08 0.43 0.43 94 999.7
20260505073604 12 252 3.2 9.7 0.18 0.43 0.43 94 999.6
20260505073104 12 242 6.4 12.9 0.30 0.43 0.43 94 999.7
20260505072604 12 232 4.8 8.0 0.41 0.43 0.43 94 999.8
20260505072104 13 230 4.8 12.9 0.43 0.43 0.43 93 999.8
20260505071604 13 231 6.4 14.5 0.43 0.43 0.43 93 999.9
20260505071103 13 248 8.0 16.1 0.43 0.43 0.43 93 999.9
20260505070605 13 227 4.8 12.9 0.43 0.43 0.43 93 999.8
20260505070104 13 245 4.8 12.9 0.43 0.43 0.43 92 999.8
20260505065604 13 233 3.2 11.3 0.43 0.43 0.43 92 999.8
20260505064604 14 238 4.8 14.5 0.43 0.43 0.43 91 999.9
20260505064104 14 238 8.0 14.5 0.36 0.36 0.36 90 1000.3
20260505063604 14 283 11.3 33.8 0.25 0.25 0.25 89 1001.0
20260505062603 14 267 8.0 19.3 0.03 0.03 0.03 86 1000.6
20260505062104 14 272 9.7 27.4 0.00 0.00 0.00 86 1000.7
20260505061604 14 251 11.3 29.0 0.00 0.00 0.00 85 1000.9
20260505061105 15 254 9.7 22.5 0.00 0.00 0.00 85 1000.8
20260505060604 15 262 9.7 22.5 0.00 0.00 0.00 84 1000.7
20260505060104 15 264 11.3 25.7 0.00 0.00 0.00 82 1000.6
20260505055603 15 273 9.7 19.3 0.00 0.00 0.00 80 1000.6
20260505055104 15 270 9.7 22.5 0.00 0.00 0.00 78 1000.6
20260505054104 16 268 9.7 32.2 0.00 0.00 0.00 75 1000.8
20260505053604 16 270 11.3 19.3 0.00 0.00 0.00 73 1000.9
20260505053104 16 287 8.0 19.3 0.00 0.00 0.00 73 1000.9
20260505052604 16 282 8.0 19.3 0.00 0.00 0.00 72 1000.9
20260505052104 16 269 9.7 25.7 0.00 0.00 0.00 71 1000.9
20260505051605 17 275 8.0 20.9 0.00 0.00 0.00 71 1000.9
20260505051104 17 275 12.9 29.0 0.00 0.00 0.00 70 1000.9
20260505050604 17 289 11.3 25.7 0.00 0.00 0.00 70 1000.9
20260505050105 17 270 8.0 29.0 0.00 0.00 0.00 70 1000.9
20260505041604 16 260 9.7 25.7 0.00 0.00 0.00 72 1000.7
20260505041104 16 265 9.7 16.1 0.00 0.00 0.00 71 1000.7
20260505040606 16 249 9.7 19.3 0.00 0.00 0.00 71 1000.7
20260505035603 16 246 8.0 19.3 0.00 0.00 0.00 71 1000.6
20260505035104 16 246 8.0 16.1 0.00 0.00 0.00 71 1000.5
20260505034604 16 238 8.0 19.3 0.00 0.00 0.00 71 1000.5
20260505034104 16 237 6.4 14.5 0.00 0.00 0.00 71 1000.5
20260505033604 16 250 3.2 9.7 0.00 0.00 0.00 71 1000.6
20260505033104 16 239 8.0 16.1 0.00 0.00 0.00 70 1000.7
20260505032604 16 243 6.4 14.5 0.00 0.00 0.00 70 1000.9
20260505032104 16 255 4.8 14.5 0.00 0.00 0.00 70 1000.9
20260505031604 16 251 4.8 14.5 0.00 0.00 0.00 69 1001.0
20260505030603 16 243 4.8 20.9 0.00 0.00 0.00 68 1001.2
20260505025603 16 249 8.0 20.9 0.00 0.00 0.00 66 1001.3
20260505025104 16 247 6.4 19.3 0.00 0.00 0.00 65 1001.3
20260505024604 16 259 6.4 20.9 0.00 0.00 0.00 64 1001.4
20260505024104 16 251 9.7 19.3 0.00 0.00 0.00 63 1001.4
20260505023603 16 252 8.0 19.3 0.00 0.00 0.00 63 1001.3
20260505023103 16 256 8.0 14.5 0.00 0.00 0.00 63 1001.2
20260505022604 16 255 6.4 22.5 0.00 0.00 0.00 63 1001.4
20260505022104 15 264 8.0 19.3 0.00 0.00 0.00 61 1001.4
20260505021604 15 247 6.4 14.5 0.00 0.00 0.00 60 1001.5
20260505021104 16 244 4.8 11.3 0.00 0.00 0.00 59 1001.3
20260505020604 16 238 4.8 9.7 0.00 0.00 0.00 59 1001.3
20260505020104 16 247 3.2 8.0 0.00 0.00 0.00 58 1001.2
20260505015604 16 240 3.2 4.8 0.00 0.00 0.00 58 1001.3
20260505015104 16 250 3.2 4.8 0.00 0.00 0.00 56 1001.2
20260505014604 16 233 3.2 11.3 0.00 0.00 0.00 56 1001.2
20260505013606 16 244 4.8 9.7 0.00 0.00 0.00 54 1001.3
20260505013103 16 242 3.2 4.8 0.00 0.00 0.00 54 1001.2
20260505012603 16 246 3.2 8.0 0.00 0.00 0.00 54 1001.3
20260505012105 17 250 4.8 11.3 0.00 0.00 0.00 53 1001.2
20260505011604 17 246 3.2 4.8 0.00 0.00 0.00 53 1001.2
20260505011105 17 246 3.2 4.8 0.00 0.00 0.00 52 1001.2
20260505010603 17 242 3.2 4.8 0.00 0.00 0.00 52 1001.2
20260505010104 17 260 4.8 19.3 0.00 0.00 0.00 51 1001.2
20260505004608 17 257 3.2 8.0 0.00 0.00 0.00 52 1001.1
20260505004104 17 244 3.2 11.3 0.00 0.00 0.00 51 1001.1
20260505003104 18 246 3.2 12.9 0.00 0.00 0.00 50 1001.1
20260505002104 18 284 3.2 4.8 0.00 0.00 0.00 49 1001.1
20260505001604 18 264 3.2 4.8 0.00 0.00 0.00 49 1001.1
20260505001105 18 266 4.8 14.5 0.00 0.00 0.00 48 1001.2
20260505000605 19 281 4.8 9.7 0.00 0.00 0.00 49 1001.2
20260505000105 19 290 3.2 9.7 0.00 0.00 0.00 49 1001.2
20260504235604 19 298 3.2 8.0 0.00 0.00 0.00 50 1001.2
20260504235104 20 281 4.8 19.3 0.00 0.00 0.00 49 1001.2
20260504234604 20 275 4.8 11.3 0.00 0.00 0.00 49 1001.2
20260504234104 20 275 4.8 14.5 0.00 0.00 0.00 48 1001.1
20260504233604 20 269 4.8 19.3 0.00 0.00 0.00 48 1001.2
20260504233104 20 290 8.0 22.5 0.00 0.00 0.00 48 1001.2
20260504232602 20 291 8.0 14.5 0.00 0.00 0.00 48 1001.2
20260504232103 20 280 8.0 25.7 0.00 0.00 0.00 48 1001.2
20260504231605 20 278 8.0 16.1 0.00 0.03 0.00 48 1001.3
20260504231103 20 264 8.0 12.9 0.00 0.03 0.00 48 1001.3
20260504230603 20 279 4.8 19.3 0.00 0.03 0.00 49 1001.4
20260504230105 20 266 8.0 25.7 0.00 0.03 0.00 47 1001.4
20260504225616 20 275 9.7 25.7 0.00 0.03 0.00 47 1001.4
20260504225102 20 267 8.0 20.9 0.00 0.03 0.00 47 1001.5
20260504224602 21 296 8.0 27.4 0.00 0.03 0.00 46 1001.5
20260504224102 21 285 8.0 16.1 0.00 0.03 0.00 46 1001.5
20260504223602 21 290 8.0 27.4 0.00 0.03 0.00 45 1001.5
20260504223102 21 292 11.3 27.4 0.00 0.05 0.00 44 1001.6
20260504222602 21 294 11.3 22.5 0.00 0.05 0.00 42 1001.6
20260504222102 21 265 12.9 32.2 0.00 0.05 0.00 42 1001.5
20260504221602 21 288 14.5 24.1 0.00 0.05 0.00 41 1001.6
20260504221102 21 293 11.3 27.4 0.00 0.05 0.00 41 1001.5
20260504220602 21 275 11.3 22.5 0.00 0.05 0.00 41 1001.5
20260504215603 21 286 12.9 27.4 0.00 0.05 0.00 41 1001.6
20260504215103 21 285 19.3 41.8 0.00 0.05 0.00 40 1001.6
20260504214603 21 269 12.9 22.5 0.00 0.05 0.00 40 1001.6
20260504214102 22 299 16.1 35.4 0.00 0.05 0.00 41 1001.7
20260504213602 22 287 12.9 27.4 0.00 0.05 0.00 41 1001.6
20260504213103 22 259 16.1 32.2 0.00 0.05 0.00 41 1001.5
20260504212602 22 283 8.0 24.1 0.00 0.05 0.00 43 1001.5
20260504212103 22 276 9.7 29.0 0.00 0.05 0.00 45 1001.4
20260504211602 22 284 20.9 33.8 0.00 0.05 0.00 44 1001.5
20260504211103 22 289 11.3 25.7 0.00 0.05 0.00 44 1001.5
20260504210602 22 281 12.9 27.4 0.00 0.05 0.00 43 1001.5
20260504205603 22 286 12.9 24.1 0.00 0.05 0.00 44 1001.5
20260504205103 22 256 8.0 32.2 0.00 0.05 0.00 45 1001.7
20260504204602 21 268 9.7 29.0 0.00 0.05 0.00 45 1001.7
20260504204102 21 272 16.1 41.8 0.00 0.05 0.00 46 1001.7
20260504203603 22 270 11.3 35.4 0.00 0.05 0.00 44 1001.8
20260504203103 22 280 14.5 25.7 0.00 0.05 0.00 45 1001.9
20260504202602 21 294 11.3 35.4 0.00 0.05 0.00 46 1001.8
20260504202103 22 262 11.3 20.9 0.00 0.05 0.00 44 1001.9
20260504201602 22 290 14.5 32.2 0.00 0.05 0.00 46 1001.9
20260504201103 22 282 12.9 29.0 0.00 0.05 0.00 44 1002.0
20260504200602 22 257 8.0 20.9 0.00 0.05 0.00 47 1002.0
20260504195603 22 270 12.9 25.7 0.00 0.05 0.00 45 1002.1
20260504195102 22 284 9.7 20.9 0.00 0.05 0.00 47 1002.2
20260504194603 22 264 14.5 24.1 0.00 0.05 0.00 46 1002.3
20260504194102 22 270 11.3 22.5 0.00 0.05 0.00 49 1002.4
20260504193603 21 277 14.5 29.0 0.00 0.05 0.00 48 1002.4
20260504193103 21 280 9.7 25.7 0.00 0.05 0.00 48 1002.6
20260504192603 21 259 16.1 37.0 0.00 0.05 0.00 48 1002.7
20260504191103 21 278 9.7 29.0 0.00 0.05 0.00 52 1002.9
20260504190602 21 281 9.7 22.5 0.00 0.05 0.00 51 1003.0
20260504185603 21 276 12.9 25.7 0.00 0.05 0.00 53 1003.1
20260504185103 21 254 11.3 35.4 0.00 0.05 0.00 54 1003.2
20260504184602 21 252 14.5 33.8 0.00 0.05 0.00 51 1003.2
20260504184102 21 284 12.9 29.0 0.00 0.05 0.00 56 1003.3
20260504183602 21 276 16.1 32.2 0.00 0.05 0.00 53 1003.4
20260504183102 20 286 16.1 33.8 0.00 0.05 0.00 52 1003.3
20260504182602 21 268 8.0 32.2 0.00 0.05 0.00 55 1003.5
20260504182103 20 255 11.3 22.5 0.00 0.05 0.00 55 1003.5
20260504181603 20 278 17.7 29.0 0.00 0.05 0.00 55 1003.6
20260504181103 20 282 12.9 35.4 0.00 0.05 0.00 56 1003.5
20260504180103 20 270 14.5 27.4 0.00 0.05 0.00 55 1003.7
20260504175604 20 274 11.3 25.7 0.00 0.05 0.00 57 1003.8
20260504174603 18 270 12.9 32.2 0.00 0.05 0.00 56 1003.9
20260504174103 18 285 17.7 32.2 0.00 0.05 0.00 59 1004.0
20260504173602 18 281 14.5 32.2 0.00 0.05 0.00 57 1004.2
20260504173102 18 281 14.5 25.7 0.00 0.05 0.00 57 1004.1
20260504172602 18 254 9.7 32.2 0.00 0.05 0.00 58 1004.1
20260504172102 18 287 19.3 37.0 0.00 0.05 0.00 57 1004.2
20260504171103 18 282 9.7 24.1 0.00 0.05 0.00 58 1004.2
20260504170603 18 250 9.7 24.1 0.00 0.05 0.00 57 1004.3
20260504151103 17 278 14.5 27.4 0.00 0.05 0.00 60 1005.1
20260504150603 16 278 19.3 32.2 0.00 0.05 0.00 57 1005.1
20260504150103 17 291 14.5 32.2 0.00 0.05 0.00 57 1005.1
20260504140603 16 278 11.3 22.5 0.00 0.05 0.00 58 1005.1
20260504130603 14 278 11.3 32.2 0.00 0.05 0.00 61 1005.5
20260504130103 14 265 14.5 27.4 0.00 0.05 0.00 60 1005.6